Regional Weather Roundup
Issued by NWS Green Bay, WI

Home | Current Version | Previous Version | Graphics & Text | Print | Product List | Glossary Off
Versions: 1 2 3 4 5 6 7 8 9 10 11 12 13 14 15 16 17 18 19 20 21 22 23 24 25 26 27 28 29 30 31 32 33 34 35 36 37 38 39 40 41 42 43 44 45 46 47 48 49 50

000
ASUS43 KGRB 251259
RWRGRB

NORTH-CENTRAL AND NORTHEAST WISCONSIN REGIONAL WEATHER ROUNDUP
NATIONAL WEATHER SERVICE GREEN BAY WI
700 AM CST SUN JAN 25 2015

WIZ005-009-010>012-018-019-251400-
NORTH CENTRAL WISCONSIN

CITY           SKY/WX    TMP DP  RH WIND       PRES   REMARKS
IRONWOOD       CLOUDY    14   7  73 NE8       29.94R WCI   3
MANITOWISH WTR NOT AVBL
ARBOR VITAE    NOT AVBL
EAGLE RIVER    NOT AVBL
LAND O LAKES   NOT AVBL
RHINELANDER    CLOUDY    14   7  73 NE8       29.89R WCI   3
PHILLIPS       NOT AVBL
ANTIGO         NOT AVBL
TOMAHAWK       NOT AVBL
MERRILL        NOT AVBL
$$

WIZ013-073-251400-
NORTHEAST WISCONSIN

CITY           SKY/WX    TMP DP  RH WIND       PRES   REMARKS
IRON MOUNTAIN  FLURRIES  15   7  70 NE9       29.94R WCI   3
MARINETTE      CLOUDY    16   9  73 E16G23    29.97R WCI   0
$$

WIZ017-030-035>037-045-251400-
CENTRAL WISCONSIN

CITY           SKY/WX    TMP DP  RH WIND       PRES   REMARKS
MEDFORD        NOT AVBL
WAUSAU         CLOUDY    16   8  71 NE10      29.88R WCI   4
MOSINEE        CLOUDY    18  12  79 NE14      29.89R WCI   4
MARSHFIELD     CLOUDY    20  10  65 E14       29.87R WCI   7
WISC RAPIDS    CLOUDY    20  11  68 E13       29.90R WCI   7
STEVENS POINT  NOT AVBL
WAUPACA        NOT AVBL
SHAWANO        NOT AVBL
CLINTONVILLE   NOT AVBL
$$

WIZ038-039-048-051-251400-
FOX VALLEY

CITY           SKY/WX    TMP DP  RH WIND       PRES   REMARKS
NWS GREEN BAY  CLOUDY    18  10  71 NE21G31   29.93R WCI   1
APPLETON       CLOUDY    19  10  68 NE16G26   29.90R WCI   5
OSHKOSH        CLOUDY    20  13  74 NE18      29.88R WCI   5
FOND DU LAC    CLOUDY    22  15  75 NE16G25   29.87R WCI   8
$$

WIZ022-050-052-251400-
EAST CENTRAL WISCONSIN

CITY           SKY/WX    TMP DP  RH WIND       PRES   REMARKS
STURGEON BAY   CLOUDY    16   7  67 NE16      29.96R WCI   0
MANITOWOC      NOT AVBL
SHEBOYGAN      CLOUDY    24  18  77 NE20G30   29.86R WCI  10
$$

LMZ563-521-522-541>543-251400-
LAKESHORE

STATION/POSITION TIME  TEMP    WIND        PRES    VSBY  WAVE
                       AIR SEA DIR/SP/G                  HT/PER
                 (UTC) (F)     (DEG/KT/KT) (MB)    (MI)  (FT/S)
SHEBOYGAN LKSHOR 1200   27      40/ 27/ 31 1011.5R
KEWAUNEE LKSHORE 1200   22      50/ 24/ 29 1011.9R
NORTHPORT PIER   1200   15      10/ 17/ 21 1015.6R
SISTER BAY LKSHO 1200   14      20/ 10/ 18   N/A
CHAMBERS ISLAND  1200   15      30/ 16/ 20 1015.2R
MENOMINEE LKSHOR 1200   16      40/ 19/ 25 1015.6R
$$


USA.gov is the U.S. government's official web portal to all federal, state and local government web resources and services.